| time (UTC) | temp F | wind direction | speed knots | gust knots | rain 1hr in | rain 24hr in | rain mn in | humidity % | barometer mb |
| 20260503210414 | 82 | 167 | 7.8 | 6.1 | 0.00 | 0.00 | 0.00 | ||
| 20260503205914 | 81 | 127 | 9.6 | 8.7 | 0.00 | 0.00 | 0.00 | ||
| 20260503205412 | 81 | 183 | 7.8 | 7.8 | 0.00 | 0.00 | 0.00 | ||
| 20260503204912 | 80 | 176 | 10.4 | 6.1 | 0.00 | 0.00 | 0.00 | ||
| 20260503204413 | 80 | 195 | 8.7 | 6.1 | 0.00 | 0.00 | 0.00 | ||
| 20260503203910 | 80 | 180 | 7.8 | 7.8 | 0.00 | 0.00 | 0.00 | ||
| 20260503203411 | 80 | 156 | 10.4 | 12.2 | 0.00 | 0.00 | 0.00 | ||
| 20260503202911 | 81 | 176 | 7.0 | 10.4 | 0.00 | 0.00 | 0.00 | ||
| 20260503202409 | 80 | 124 | 3.5 | 1.7 | 0.00 | 0.00 | 0.00 | ||
| 20260503201909 | 80 | 187 | 8.7 | 7.8 | 0.00 | 0.00 | 0.00 | ||
| 20260503201409 | 79 | 105 | 11.3 | 10.4 | 0.00 | 0.00 | 0.00 | ||
| 20260503200907 | 79 | 135 | 7.0 | 7.8 | 0.00 | 0.00 | 0.00 | ||
| 20260503200407 | 79 | 118 | 11.3 | 9.6 | 0.00 | 0.00 | 0.00 | ||
| 20260503195908 | 79 | 183 | 7.0 | 9.6 | 0.00 | 0.00 | 0.00 | ||
| 20260503195405 | 79 | 177 | 8.7 | 8.7 | 0.00 | 0.00 | 0.00 | ||
| 20260503194906 | 80 | 159 | 8.7 | 11.3 | 0.00 | 0.00 | 0.00 | ||
| 20260503194406 | 79 | 136 | 8.7 | 12.2 | 0.00 | 0.00 | 0.00 | ||
| 20260503193904 | 78 | 138 | 7.0 | 8.7 | 0.00 | 0.00 | 0.00 | ||
| 20260503193404 | 78 | 134 | 7.8 | 9.6 | 0.00 | 0.00 | 0.00 | ||
| 20260503192904 | 77 | 162 | 6.1 | 7.0 | 0.00 | 0.00 | 0.00 | ||
| 20260503192402 | 79 | 128 | 8.7 | 7.8 | 0.00 | 0.00 | 0.00 | ||
| 20260503191902 | 79 | 186 | 11.3 | 11.3 | 0.00 | 0.00 | 0.00 | ||
| 20260503191403 | 79 | 118 | 8.7 | 8.7 | 0.00 | 0.00 | 0.00 | ||
| 20260503190900 | 78 | 129 | 12.2 | 9.6 | 0.00 | 0.00 | 0.00 | ||
| 20260503190401 | 78 | 146 | 9.6 | 8.7 | 0.00 | 0.00 | 0.00 | ||
| 20260503185901 | 78 | 145 | 8.7 | 7.8 | 0.00 | 0.00 | 0.00 | ||
| 20260503185359 | 78 | 117 | 8.7 | 7.0 | 0.00 | 0.00 | 0.00 | ||
| 20260503184859 | 79 | 135 | 7.0 | 7.0 | 0.00 | 0.00 | 0.00 | ||
| 20260503184359 | 78 | 184 | 10.4 | 7.0 | 0.00 | 0.00 | 0.00 | ||
| 20260503183857 | 79 | 152 | 8.7 | 13.0 | 0.00 | 0.00 | 0.00 | ||
| 20260503183357 | 78 | 138 | 9.6 | 10.4 | 0.00 | 0.00 | 0.00 | ||
| 20260503182857 | 78 | 198 | 12.2 | 8.7 | 0.00 | 0.00 | 0.00 | ||
| 20260503182355 | 78 | 129 | 8.7 | 10.4 | 0.00 | 0.00 | 0.00 | ||
| 20260503181855 | 78 | 134 | 7.0 | 7.8 | 0.00 | 0.00 | 0.00 | ||
| 20260503181356 | 78 | 118 | 12.2 | 8.7 | 0.00 | 0.00 | 0.00 | ||
| 20260503180853 | 78 | 153 | 4.3 | 2.6 | 0.00 | 0.00 | 0.00 | ||
| 20260503180354 | 78 | 200 | 7.8 | 8.7 | 0.00 | 0.00 | 0.00 | ||
| 20260503175854 | 77 | 134 | 8.7 | 8.7 | 0.00 | 0.00 | 0.00 | ||
| 20260503175352 | 75 | 120 | 8.7 | 8.7 | 0.00 | 0.00 | 0.00 | ||
| 20260503174852 | 76 | 108 | 11.3 | 7.8 | 0.00 | 0.00 | 0.00 | ||
| 20260503174352 | 77 | 122 | 7.0 | 13.0 | 0.00 | 0.00 | 0.00 | ||
| 20260503173850 | 77 | 193 | 9.6 | 8.7 | 0.00 | 0.00 | 0.00 | ||
| 20260503173350 | 76 | 149 | 9.6 | 7.8 | 0.00 | 0.00 | 0.00 | ||
| 20260503172851 | 77 | 190 | 9.6 | 9.6 | 0.00 | 0.00 | 0.00 | ||
| 20260503172348 | 77 | 173 | 9.6 | 7.0 | 0.00 | 0.00 | 0.00 | ||
| 20260503171848 | 76 | 203 | 7.8 | 7.8 | 0.00 | 0.00 | 0.00 | ||
| 20260503171349 | 76 | 200 | 8.7 | 12.2 | 0.00 | 0.00 | 0.00 | ||
| 20260503170846 | 76 | 169 | 9.6 | 9.6 | 0.00 | 0.00 | 0.00 | ||
| 20260503170347 | 75 | 156 | 9.6 | 7.0 | 0.00 | 0.00 | 0.00 | ||
| 20260503150834 | 70 | 194 | 7.0 | 7.0 | 0.00 | 0.00 | 0.00 | ||
| 20260503150334 | 69 | 197 | 6.1 | 6.1 | 0.00 | 0.00 | 0.00 | ||
| 20260503131323 | 66 | 11 | 0.0 | 0.0 | 0.00 | 0.07 | 0.00 | ||
| 20260503130820 | 65 | 11 | 0.0 | 0.0 | 0.00 | 0.07 | 0.00 | ||
| 20260503130321 | 64 | 11 | 0.0 | 0.0 | 0.00 | 0.07 | 0.00 | ||
| 20260503110808 | 48 | 333 | 0.0 | 0.0 | 0.00 | 0.07 | 0.00 | ||
| 20260503110309 | 49 | 353 | 1.7 | 0.9 | 0.00 | 0.07 | 0.00 | ||
| 20260503090254 | 44 | 156 | 0.0 | 0.0 | 0.00 | 0.07 | 0.00 | ||
| 20260503081250 | 53 | 156 | 0.0 | 0.0 | 0.00 | 0.07 | 0.00 | ||
| 20260503080748 | 53 | 156 | 0.0 | 0.0 | 0.00 | 0.07 | 0.00 | ||
| 20260503080248 | 53 | 156 | 0.0 | 0.0 | 0.00 | 0.07 | 0.00 | ||
| 20260503072745 | 54 | 156 | 0.0 | 0.0 | 0.00 | 0.07 | 0.00 | ||
| 20260503072242 | 55 | 156 | 0.0 | 0.0 | 0.00 | 0.07 | 0.00 | ||
| 20260503071743 | 55 | 156 | 0.0 | 0.0 | 0.00 | 0.07 | 0.00 | ||
| 20260503071243 | 54 | 156 | 0.0 | 0.0 | 0.00 | 0.07 | 0.00 | ||
| 20260503070741 | 54 | 156 | 0.0 | 0.0 | 0.00 | 0.07 | 0.00 | ||
| 20260503070241 | 54 | 156 | 0.0 | 0.0 | 0.00 | 0.07 | 0.00 | ||
| 20260503060235 | 57 | 146 | 0.9 | 1.7 | 0.00 | 0.07 | 0.00 | ||
| 20260503054734 | 57 | 150 | 0.9 | 0.9 | 0.00 | 0.07 | 0.00 | ||
| 20260503054234 | 57 | 149 | 1.7 | 0.9 | 0.00 | 0.07 | 0.00 | ||
| 20260503053732 | 58 | 146 | 1.7 | 1.7 | 0.00 | 0.07 | 0.00 | ||
| 20260503053233 | 58 | 149 | 2.6 | 1.7 | 0.00 | 0.07 | 0.00 | ||
| 20260503052733 | 57 | 159 | 2.6 | 2.6 | 0.00 | 0.07 | 0.00 | ||
| 20260503052231 | 58 | 191 | 3.5 | 3.5 | 0.00 | 0.07 | 0.00 | ||
| 20260503051731 | 58 | 177 | 3.5 | 2.6 | 0.00 | 0.07 | 0.00 | ||
| 20260503051232 | 57 | 180 | 4.3 | 3.5 | 0.00 | 0.07 | 0.00 | ||
| 20260503050729 | 57 | 183 | 2.6 | 3.5 | 0.00 | 0.07 | 0.00 | ||
| 20260503050230 | 57 | 183 | 1.7 | 2.6 | 0.00 | 0.07 | 0.00 | ||
| 20260503045730 | 57 | 156 | 0.0 | 0.0 | 0.00 | 0.07 | 0.00 | ||
| 20260503045228 | 57 | 156 | 0.0 | 0.0 | 0.00 | 0.07 | 0.00 | ||
| 20260503044728 | 56 | 156 | 0.0 | 0.0 | 0.00 | 0.07 | 0.00 | ||
| 20260503044229 | 56 | 156 | 0.9 | 0.0 | 0.00 | 0.07 | 0.00 | ||
| 20260503043920 | 56 | 169 | 0.0 | 0.0 | 0.00 | 0.07 | 0.00 | ||
| 20260503043727 | 56 | 169 | 0.0 | 0.0 | 0.00 | 0.07 | 0.00 | ||
| 20260503043227 | 56 | 128 | 0.0 | 0.0 | 0.00 | 0.07 | 0.00 | ||
| 20260503042728 | 57 | 128 | 0.0 | 0.0 | 0.00 | 0.07 | 0.00 | ||
| 20260503042410 | 57 | 160 | 1.7 | 1.7 | 0.00 | 0.07 | 0.00 | ||
| 20260503042225 | 57 | 165 | 0.9 | 0.9 | 0.00 | 0.07 | 0.00 | ||
| 20260503041726 | 57 | 160 | 1.7 | 1.7 | 0.00 | 0.07 | 0.00 | ||
| 20260503041226 | 56 | 174 | 1.7 | 2.6 | 0.00 | 0.07 | 0.00 | ||
| 20260503040724 | 57 | 238 | 0.0 | 0.0 | 0.00 | 0.07 | 0.00 | ||
| 20260503040225 | 56 | 238 | 0.0 | 0.0 | 0.00 | 0.07 | 0.00 | ||
| 20260503035725 | 56 | 238 | 0.0 | 0.0 | 0.00 | 0.07 | 0.00 | ||
| 20260503035223 | 57 | 238 | 0.0 | 0.0 | 0.00 | 0.07 | 0.00 | ||
| 20260503034723 | 57 | 238 | 0.0 | 0.0 | 0.00 | 0.07 | 0.00 | ||
| 20260503034303 | 57 | 238 | 0.0 | 0.0 | 0.00 | 0.07 | 0.00 | ||
| 20260503034225 | 57 | 238 | 0.0 | 0.0 | 0.00 | 0.07 | 0.00 | ||
| 20260503034222 | 57 | 238 | 0.0 | 0.0 | 0.00 | 0.07 | 0.00 | ||
| 20260503033719 | 57 | 238 | 0.0 | 0.0 | 0.00 | 0.07 | 0.00 | ||
| 20260503033238 | 60 | 70 | 0.0 | 0.0 | 0.00 | 0.07 | 0.00 | ||
| 20260503033220 | 57 | 238 | 0.0 | 0.0 | 0.00 | 0.07 | 0.00 | ||
| 20260503032720 | 58 | 238 | 0.0 | 0.0 | 0.00 | 0.07 | 0.00 | ||
| 20260503032218 | 58 | 238 | 0.0 | 0.0 | 0.00 | 0.07 | 0.00 | ||
| 20260503031718 | 58 | 238 | 0.0 | 0.0 | 0.00 | 0.07 | 0.00 | ||
| 20260503031219 | 58 | 238 | 0.0 | 0.0 | 0.00 | 0.07 | 0.00 | ||
| 20260503030716 | 59 | 245 | 1.7 | 1.7 | 0.00 | 0.07 | 0.00 | ||
| 20260503030216 | 59 | 70 | 0.0 | 0.0 | 0.00 | 0.07 | 0.00 | ||
| 20260503025717 | 60 | 70 | 0.0 | 0.0 | 0.00 | 0.07 | 0.00 | ||
| 20260503025214 | 60 | 70 | 0.0 | 0.0 | 0.00 | 0.07 | 0.00 | ||
| 20260503024715 | 60 | 70 | 0.0 | 0.0 | 0.00 | 0.07 | 0.00 | ||
| 20260503024215 | 60 | 70 | 0.0 | 0.0 | 0.00 | 0.07 | 0.00 | ||
| 20260503023713 | 60 | 70 | 0.0 | 0.0 | 0.00 | 0.07 | 0.00 | ||
| 20260503023212 | 60 | 70 | 0.0 | 0.0 | 0.00 | 0.07 | 0.00 | ||
| 20260503022826 | 60 | 70 | 0.0 | 0.0 | 0.00 | 0.07 | 0.00 | ||
| 20260503022712 | 60 | 70 | 0.0 | 0.0 | 0.00 | 0.07 | 0.00 | ||
| 20260503022210 | 60 | 70 | 0.0 | 0.0 | 0.00 | 0.07 | 0.00 | ||
| 20260503021710 | 61 | 70 | 0.0 | 0.0 | 0.00 | 0.07 | 0.00 | ||
| 20260503021211 | 62 | 70 | 0.0 | 0.0 | 0.00 | 0.07 | 0.00 | ||
| 20260503020708 | 62 | 70 | 0.0 | 0.0 | 0.00 | 0.07 | 0.00 | ||
| 20260503020209 | 62 | 70 | 0.0 | 0.0 | 0.00 | 0.07 | 0.00 | ||
| 20260503015709 | 63 | 70 | 0.0 | 0.0 | 0.00 | 0.07 | 0.00 | ||
| 20260503015207 | 63 | 70 | 0.0 | 0.0 | 0.00 | 0.07 | 0.00 | ||
| 20260503014707 | 64 | 70 | 0.0 | 0.0 | 0.00 | 0.07 | 0.00 | ||
| 20260503014207 | 64 | 70 | 0.0 | 0.0 | 0.00 | 0.07 | 0.00 | ||
| 20260503013705 | 64 | 70 | 0.0 | 0.0 | 0.00 | 0.07 | 0.00 | ||
| 20260503013205 | 65 | 70 | 0.0 | 0.0 | 0.00 | 0.07 | 0.00 | ||
| 20260503012706 | 65 | 70 | 0.0 | 0.0 | 0.00 | 0.07 | 0.00 | ||
| 20260503012203 | 66 | 70 | 0.0 | 0.0 | 0.00 | 0.07 | 0.00 | ||
| 20260503011703 | 66 | 70 | 0.0 | 0.0 | 0.00 | 0.07 | 0.00 | ||
| 20260503011204 | 66 | 70 | 0.0 | 0.0 | 0.00 | 0.07 | 0.00 | ||
| 20260503010701 | 67 | 70 | 0.0 | 0.0 | 0.00 | 0.07 | 0.00 | ||
| 20260503010202 | 67 | 70 | 0.0 | 0.0 | 0.00 | 0.07 | 0.00 | ||
| 20260503005702 | 67 | 70 | 0.0 | 0.0 | 0.00 | 0.07 | 0.00 | ||
| 20260503005200 | 67 | 70 | 0.0 | 0.0 | 0.00 | 0.07 | 0.00 | ||
| 20260503004700 | 67 | 70 | 0.0 | 0.0 | 0.00 | 0.07 | 0.00 | ||
| 20260503004201 | 68 | 70 | 0.0 | 0.0 | 0.00 | 0.07 | 0.00 | ||
| 20260503003658 | 68 | 70 | 0.0 | 0.0 | 0.00 | 0.07 | 0.00 | ||
| 20260503003159 | 68 | 70 | 0.0 | 0.0 | 0.00 | 0.07 | 0.00 | ||
| 20260503002659 | 54 | 345 | 11.3 | 10.4 | 0.00 | 0.02 | 0.03 | ||
| 20260503002657 | 54 | 353 | 12.2 | 9.6 | 0.00 | 0.02 | 0.01 | ||
| 20260503002654 | 54 | 35 | 8.7 | 9.6 | 0.00 | 0.02 | 0.01 | ||
| 20260503002652 | 55 | 41 | 8.7 | 9.6 | 0.00 | 0.00 | 0.02 | ||
| 20260503002157 | 68 | 70 | 0.0 | 0.0 | 0.00 | 0.07 | 0.00 | ||
| 20260503001657 | 68 | 70 | 1.7 | 0.9 | 0.00 | 0.07 | 0.00 | ||
| 20260503001158 | 69 | 94 | 0.0 | 0.0 | 0.00 | 0.07 | 0.00 | ||
| 20260503000655 | 69 | 94 | 0.0 | 0.0 | 0.00 | 0.07 | 0.00 | ||
| 20260503000156 | 69 | 94 | 0.0 | 0.0 | 0.00 | 0.07 | 0.00 | ||
| 20260502235656 | 70 | 94 | 0.0 | 0.0 | 0.00 | 0.07 | 0.00 | ||
| 20260502235154 | 69 | 94 | 0.9 | 0.0 | 0.00 | 0.07 | 0.00 | ||
| 20260502234654 | 70 | 62 | 0.0 | 0.0 | 0.00 | 0.07 | 0.00 | ||
| 20260502234154 | 69 | 62 | 0.0 | 0.0 | 0.00 | 0.07 | 0.00 | ||
| 20260502233652 | 70 | 45 | 0.9 | 0.9 | 0.00 | 0.07 | 0.00 | ||
| 20260502233152 | 70 | 44 | 0.0 | 0.0 | 0.00 | 0.07 | 0.00 | ||
| 20260502232653 | 70 | 44 | 0.0 | 0.0 | 0.00 | 0.07 | 0.00 | ||
| 20260502232150 | 71 | 44 | 0.0 | 0.0 | 0.00 | 0.07 | 0.00 | ||
| 20260502231650 | 71 | 66 | 2.6 | 3.5 | 0.00 | 0.07 | 0.00 | ||
| 20260502231151 | 72 | 11 | 0.0 | 0.0 | 0.00 | 0.07 | 0.00 | ||
| 20260502230648 | 71 | 3 | 1.7 | 0.0 | 0.00 | 0.07 | 0.00 | ||
| 20260502230149 | 71 | 38 | 0.0 | 0.0 | 0.00 | 0.07 | 0.00 | ||
| 20260502225649 | 70 | 38 | 1.7 | 0.0 | 0.00 | 0.07 | 0.00 | ||
| 20260502225147 | 71 | 65 | 4.3 | 5.2 | 0.00 | 0.07 | 0.00 | ||
| 20260502224648 | 72 | 7 | 3.5 | 4.3 | 0.00 | 0.07 | 0.00 | ||
| 20260502224148 | 71 | 84 | 2.6 | 1.7 | 0.00 | 0.07 | 0.00 | ||
| 20260502223645 | 71 | 59 | 4.3 | 6.1 | 0.00 | 0.07 | 0.00 | ||
| 20260502223146 | 71 | 48 | 2.6 | 2.6 | 0.00 | 0.07 | 0.00 | ||
| 20260502222646 | 70 | 97 | 4.3 | 5.2 | 0.00 | 0.07 | 0.00 | ||
| 20260502222143 | 70 | 98 | 5.2 | 6.1 | 0.00 | 0.07 | 0.00 | ||
| 20260502221644 | 70 | 75 | 4.3 | 5.2 | 0.00 | 0.07 | 0.00 | ||
| 20260502221144 | 71 | 75 | 0.9 | 3.5 | 0.00 | 0.07 | 0.00 | ||
| 20260502220642 | 72 | 49 | 4.3 | 4.3 | 0.00 | 0.07 | 0.00 | ||
| 20260502220142 | 73 | 51 | 2.6 | 3.5 | 0.00 | 0.07 | 0.00 | ||
| 20260502215643 | 75 | 211 | 1.7 | 3.5 | 0.00 | 0.07 | 0.00 | ||
| 20260502215140 | 74 | 208 | 0.0 | 0.0 | 0.00 | 0.07 | 0.00 | ||
| 20260502214641 | 73 | 163 | 4.3 | 5.2 | 0.00 | 0.07 | 0.00 | ||
| 20260502214141 | 72 | 131 | 7.0 | 5.2 | 0.00 | 0.07 | 0.00 | ||
| 20260502213639 | 72 | 65 | 3.5 | 5.2 | 0.00 | 0.07 | 0.00 | ||
| 20260502213139 | 71 | 68 | 2.6 | 7.0 | 0.00 | 0.07 | 0.00 | ||
| 20260502212639 | 71 | 4 | 2.6 | 2.6 | 0.00 | 0.07 | 0.00 | ||
| 20260502212137 | 75 | 13 | 6.1 | 7.8 | 0.00 | 0.07 | 0.00 | ||
| 20260502211637 | 73 | 316 | 3.5 | 5.2 | 0.00 | 0.07 | 0.00 | ||
| 20260502211138 | 73 | 120 | 0.9 | 3.5 | 0.00 | 0.07 | 0.00 |